Pago Pago, AS

10:46 PM SST on April 01, 2015 (GMT -1100)
Bradshaw Army Air Field | | Change Station
CLOSE
Current Station
Airport
Location: Bradshaw AFB,
Elevation: 6191 ft
Nearby Weather Stations

Elev 6191 ft 19.76 °N, 155.55 °W | Updated 50 minutes ago

Clear
Clear
51 °F
Feels Like 51 °F
N
6
Wind Variable Wind from ESE

Today
High -- | Low -- °F
--% Chance of Precip.
Yesterday
High -- | Low -- °F
Precip. -- in
6:27 AM 6:25 PM
Waxing Gibbous, 96% visible
Pressure 29.98 in
Visibility 10.0 miles
Clouds Clear
Dew Point 37 °F
Humidity 59%
Rainfall 0.00 in
Snow Depth Not available.
UV 0 out of 12
Pollen Not available.
Air Quality Not available.
Flu Activity Not available.
METAR PHSF 020856Z AUTO 12005KT 10SM CLR 11/03 A3031 RMK AO2 SLP150 T01070030 50007 $

More Conditions Fewer Conditions

Pressure 29.98 in
Visibility 10.0 miles
Clouds Clear
Dew Point 37 °F
Humidity 59%
Rainfall 0.00 in
Snow Depth Not available.
UV 0 out of 12
Pollen Not available.
Air Quality Not available.
Flu Activity Not available.
METAR PHSF 020856Z AUTO 12005KT 10SM CLR 11/03 A3031 RMK AO2 SLP150 T01070030 50007 $

More Conditions Fewer Conditions

10-Day Weather Forecast

Almanac

Astronomy

Apr. 01, 2015 Rise Set
Actual Time
Civil Twilight
Nautical Twilight
Astronomical Twilight
Moon
Length of Visible Light
Length of Day
Tomorrow will be .
, % of the Moon is Illuminated

Today's Extremes

State Highs State Lows

Community

WunderPhotos

Upload Photos

1,810,216 photos uploaded!

WunderBlogs® & News

Nearby

Air Quality

  Air Quality AQ Index Pollutant
Not available.

Snow Depth

Station Depth Elevation

Earthquake Activity

City Distance Mag. Time & Date
Minimum magnitude displayed is 2.5.

Coastal Water Temperatures

Place Temperature

Stations

Nearby Weather Stations

Station Location Temp. Windchill Dew Point Humidity Wind Precip. Elev Updated Type